[[{"header":{"parameterUnit":"m.s-1","parameterCategory":1,"la1":30.2992,"la2":30.254,"lo1":-89.0895,"lo2":-89.0443,"dy":0.0025,"dx":0.0025,"nx":19,"ny":19,"refTime":"2026-03-20T03:00:00:Z","depth":0,"parameterNumber":2,"parameterNumberName":"U-component_of_WINDS"},"data":[0,0,0,-0.3117,-0.3114,-0.2953,-0.2952,-0.2757,-0.2755,0,0,0,0,0,0,0,0,0,0,0,-0.3172,-0.3171,-0.3118,-0.3114,-0.2953,-0.2952,-0.2757,-0.2755,0,0,0,0,0,0,0,0,0,0,0,-0.3173,-0.3172,-0.317,-0.3113,-0.2953,-0.2952,-0.2758,-0.2875,0,0,0,0,0,0,0,0,0,0,-0.303,-0.3088,-0.3172,-0.317,-0.3112,-0.2953,-0.2952,-0.2881,-0.2868,-0.2835,0,-0.2808,0,-0.2779,-0.2743,-0.2742,0,0,0,-0.3108,-0.3098,-0.3049,-0.317,-0.3111,-0.2954,-0.3024,-0.2873,-0.2859,-0.2818,-0.2805,-0.2798,-0.2776,-0.2742,-0.2741,-0.2573,-0.2572,0,0,-0.3117,-0.3147,-0.3059,-0.304,-0.3066,-0.3029,-0.3019,-0.2864,-0.2852,-0.2805,-0.2793,-0.2773,-0.2741,-0.2739,-0.2573,-0.2573,0,0,0,-0.3146,-0.3154,-0.3107,-0.3048,-0.3018,-0.3025,-0.3013,-0.2859,-0.2842,-0.2791,-0.277,-0.274,-0.2737,-0.2574,-0.2573,-0.2576,0,0,0,-0.3151,-0.3171,-0.3111,-0.3128,-0.3021,-0.2937,-0.3011,-0.2852,-0.2834,-0.2771,-0.2739,-0.2736,-0.2574,-0.2573,-0.2577,-0.2571,0,0,0,-0.318,-0.3174,-0.3153,-0.313,-0.3062,-0.2939,-0.2912,-0.2848,-0.2821,-0.2742,-0.2735,-0.2575,-0.2574,-0.2578,-0.2572,-0.2534,0,0,0,-0.322,-0.3158,-0.3154,-0.3078,-0.3064,-0.2943,-0.2913,-0.2821,-0.2754,-0.2739,-0.2574,-0.2573,-0.2578,-0.2573,-0.2535,-0.2505,-0.2496,0,0,-0.3159,-0.3152,-0.3105,-0.3096,-0.2984,-0.2965,-0.2853,-0.2762,-0.2727,-0.2626,-0.2621,-0.2577,-0.2573,-0.2534,-0.2441,-0.2434,0,0,0,-0.3096,-0.3062,-0.3025,-0.2963,-0.2894,-0.2833,-0.2757,-0.2723,-0.2637,-0.2682,-0.2553,-0.255,-0.2526,-0.251,-0.2504,-0.248,-0.2568,-0.2568,-0.2568,-0.305,-0.301,-0.2928,-0.2868,-0.2809,-0.2732,-0.2679,-0.262,-0.2596,-0.2567,-0.2535,-0.2484,-0.2466,-0.2462,-0.2438,-0.2519,-0.2519,-0.2519,-0.2519,-0.2955,-0.29,-0.2871,-0.2781,-0.2739,-0.2662,-0.2586,-0.2572,-0.2494,-0.2504,-0.2481,-0.2492,-0.2456,-0.2432,-0.2519,-0.2519,-0.2519,-0.2519,-0.2519,-0.2918,-0.2884,-0.2846,-0.2752,-0.2685,-0.2627,-0.2554,-0.2518,-0.2484,-0.2461,-0.2423,-0.2423,-0.2416,-0.2447,-0.2446,-0.2446,-0.2446,-0.2446,-0.2446,-0.2894,-0.2851,-0.2793,-0.2716,-0.2671,-0.2608,-0.2532,-0.2487,-0.2427,-0.2407,-0.2406,-0.2384,-0.2461,-0.2479,-0.2443,-0.2443,-0.2444,-0.2444,-0.2444,-0.2806,-0.2821,-0.2732,-0.2688,-0.2593,-0.2528,-0.2485,-0.2397,-0.2354,-0.2319,-0.2303,-0.2367,-0.2357,-0.2361,-0.2375,-0.2314,-0.2314,-0.2314,-0.2314,-0.2772,-0.2765,-0.2666,-0.2597,-0.2526,-0.2479,-0.2379,-0.232,-0.226,-0.2232,-0.2236,-0.2254,-0.226,-0.2246,-0.2253,-0.2265,-0.2177,-0.2177,-0.2177,-0.2715,-0.2699,-0.2621,-0.2564,-0.2488,-0.2424,-0.2328,-0.225,-0.2186,-0.2171,-0.2207,-0.2213,-0.2241,-0.2253,-0.2235,-0.2246,-0.2269,0,0]},{"header":{"parameterUnit":"m.s-1","parameterCategory":1,"la1":30.2992,"la2":30.254,"lo1":-89.0895,"lo2":-89.0443,"dy":0.0025,"dx":0.0025,"nx":19,"ny":19,"refTime":"2026-03-20T03:00:00:Z","depth":0,"parameterNumber":3,"parameterNumberName":"V-component_of_WINDS"},"data":[0,0,0,5.4983,5.4987,5.5148,5.5149,5.5361,5.5363,0,0,0,0,0,0,0,0,0,0,0,5.4943,5.4945,5.4983,5.4987,5.5148,5.5149,5.536,5.5363,0,0,0,0,0,0,0,0,0,0,0,5.4943,5.4945,5.4947,5.4988,5.5148,5.5149,5.536,5.5235,0,0,0,0,0,0,0,0,0,0,5.5077,5.505,5.4944,5.4947,5.4989,5.5148,5.5149,5.5229,5.5243,5.5291,0,5.5342,0,5.5356,5.5378,5.5379,0,0,0,5.4979,5.5038,5.5075,5.4947,5.499,5.5148,5.5073,5.5236,5.5252,5.531,5.5345,5.5352,5.536,5.5379,5.538,5.5699,5.57,0,0,5.497,5.4976,5.5064,5.5085,5.5067,5.5068,5.5079,5.5246,5.5282,5.5345,5.5357,5.5363,5.5381,5.5382,5.5697,5.5699,0,0,0,5.495,5.497,5.5002,5.5077,5.5106,5.5073,5.5085,5.5274,5.5285,5.5359,5.5366,5.5382,5.5385,5.5695,5.5698,5.5798,0,0,0,5.4944,5.4958,5.4999,5.5003,5.5103,5.5193,5.511,5.5273,5.5292,5.5365,5.5382,5.5387,5.5693,5.5697,5.5791,5.5844,0,0,0,5.493,5.4956,5.4983,5.5003,5.5074,5.5191,5.521,5.5277,5.5296,5.5379,5.5388,5.5692,5.5696,5.5784,5.5833,5.5931,0,0,0,5.4915,5.5066,5.4984,5.5155,5.5072,5.5252,5.5209,5.5341,5.5424,5.5383,5.5693,5.5698,5.5782,5.5827,5.5924,5.6016,5.6055,0,0,5.5108,5.509,5.519,5.5121,5.5318,5.5227,5.5436,5.5503,5.5503,5.5632,5.564,5.5793,5.5833,5.593,5.6264,5.6295,0,0,0,5.5253,5.5325,5.5376,5.5458,5.5516,5.5569,5.5605,5.563,5.574,5.5573,5.5853,5.5876,5.5933,5.5977,5.6003,5.6051,5.5717,5.5717,5.5717,5.5535,5.5531,5.5696,5.5711,5.579,5.5826,5.5888,5.5927,5.5896,5.5962,5.6001,5.6206,5.6257,5.6277,5.6327,5.6047,5.6048,5.6048,5.6048,5.582,5.5923,5.588,5.6027,5.6019,5.6139,5.6177,5.6152,5.626,5.6175,5.6225,5.6135,5.6311,5.6354,5.6056,5.6054,5.6053,5.6053,5.6052,5.6007,5.6056,5.6086,5.6203,5.6293,5.6299,5.6407,5.6394,5.6382,5.6431,5.6471,5.647,5.6468,5.6451,5.6452,5.6452,5.6453,5.6453,5.6454,5.619,5.6221,5.6316,5.6391,5.6442,5.6506,5.6542,5.659,5.6639,5.662,5.6621,5.6584,5.6329,5.6266,5.6465,5.6463,5.6462,5.646,5.646,5.6486,5.6417,5.6564,5.6616,5.6701,5.6791,5.6773,5.6871,5.6908,5.6961,5.6912,5.6726,5.6704,5.6683,5.6632,5.6913,5.6913,5.6913,5.6913,5.6645,5.6633,5.6782,5.6864,5.6943,5.6942,5.7104,5.7132,5.7149,5.7171,5.7127,5.7056,5.7035,5.7026,5.6998,5.695,5.7306,5.7306,5.7306,5.6827,5.6823,5.6967,5.6987,5.7053,5.7108,5.7261,5.7353,5.7357,5.7322,5.7188,5.7171,5.7056,5.7019,5.6984,5.6941,5.6852,0,0]}]]